TimeCDT,TemperatureF,Dew PointF,Humidity,Sea Level PressureIn,VisibilityMPH,Wind Direction,Wind SpeedMPH,Gust SpeedMPH,PrecipitationIn,Events,Conditions,WindDirDegrees,DateUTC
12:58 AM,40.5,37.6,89,30.18,10.0,Calm,Calm,-,N/A,,Clear,0,2014-04-17 05:58:00
1:58 AM,39.6,37.6,93,30.18,10.0,Calm,Calm,-,N/A,,Clear,0,2014-04-17 06:58:00
2:58 AM,38.3,37.0,95,30.19,10.0,NE,1.2,-,N/A,,Clear,40,2014-04-17 07:58:00
3:58 AM,37.2,35.8,95,30.19,10.0,Calm,Calm,-,N/A,,Clear,0,2014-04-17 08:58:00
4:58 AM,36.5,35.1,95,30.20,10.0,Calm,Calm,-,N/A,,Clear,0,2014-04-17 09:58:00
5:58 AM,35.8,34.3,94,30.21,10.0,NE,1.2,-,N/A,,Clear,50,2014-04-17 10:58:00
6:58 AM,35.6,34.7,97,30.23,10.0,Calm,Calm,-,N/A,,Clear,0,2014-04-17 11:58:00
7:58 AM,41.4,38.7,90,30.25,7.0,Calm,Calm,-,N/A,,Clear,0,2014-04-17 12:58:00
8:58 AM,50.4,42.4,74,30.27,7.0,Calm,Calm,-,N/A,,Clear,0,2014-04-17 13:58:00
9:58 AM,59.0,42.6,55,30.28,10.0,East,4.6,-,N/A,,Clear,80,2014-04-17 14:58:00
10:58 AM,62.1,40.8,46,30.28,10.0,Variable,3.5,-,N/A,,Clear,0,2014-04-17 15:58:00
11:58 AM,64.9,38.1,37,30.25,10.0,South,8.1,-,N/A,,Clear,180,2014-04-17 16:58:00
12:58 PM,66.7,37.9,35,30.23,10.0,SSE,6.9,-,N/A,,Scattered Clouds,150,2014-04-17 17:58:00
1:58 PM,67.1,39.2,36,30.23,10.0,SSE,8.1,-,N/A,,Partly Cloudy,150,2014-04-17 18:58:00
2:58 PM,68.2,38.3,33,30.22,10.0,Variable,6.9,18.4,N/A,,Clear,0,2014-04-17 19:58:00
3:58 PM,68.4,39.9,35,30.20,10.0,Variable,6.9,-,N/A,,Partly Cloudy,0,2014-04-17 20:58:00
4:58 PM,69.3,38.8,33,30.19,10.0,Variable,6.9,-,N/A,,Clear,0,2014-04-17 21:58:00
5:58 PM,69.4,39.9,34,30.20,9.0,SSE,5.8,-,N/A,,Clear,150,2014-04-17 22:58:00
6:58 PM,66.0,42.1,42,30.19,6.0,ESE,4.6,-,N/A,,Haze,110,2014-04-17 23:58:00
7:58 PM,64.4,43.7,47,30.21,7.0,ESE,2.3,-,N/A,,Overcast,120,2014-04-18 00:58:00
8:58 PM,63.0,43.5,49,30.21,7.0,ESE,4.6,-,N/A,,Overcast,110,2014-04-18 01:58:00
9:58 PM,58.8,46.4,63,30.23,9.0,Calm,Calm,-,N/A,,Scattered Clouds,0,2014-04-18 02:58:00
10:58 PM,55.9,45.9,69,30.23,10.0,Calm,Calm,-,N/A,,Scattered Clouds,0,2014-04-18 03:58:00
11:58 PM,52.9,46.2,78,30.22,10.0,NE,1.2,-,N/A,,Clear,40,2014-04-18 04:58:00